Home > Weather > Swindon > Past weeks

Flag for United Kingdom Weather for the Past 2 Weeks in Swindon, England, United Kingdom

Now
41 °F

Passing clouds.


Feels Like: 36 °F
Forecast: 34 / 45 °F
Wind: 7 mph from West

Location: Brize Norton

Current Time: Feb 10, 2016 at 1:26:20 AM

Latest Report: Feb 9, 2016 at 11:50 PM


Visibility: N/A

Pressure: 29.21 "Hg

Humidity: 81%

Dew point: 36 °F

Location of SwindonLocation

Historic Weather in Swindon — Graph

°F

Swindon Temperature Yesterday

Maximum temperature yesterday: 45 °F (at 2:50 PM)
Minimum temperature yesterday: 36 °F (at 5:50 AM)
Average temperature yesterday: 39 °F

High & Low Weather Summary for the Past Weeks

 TemperatureHumidityPressure
High55 °F (Jan 27, 6:50 AM)100% (Jan 29, 5:50 PM)30.36 "Hg (Jan 29, 5:50 PM)
Low34 °F (Jan 28, 6:50 AM)43% (Feb 2, 12:50 PM)28.97 "Hg (Feb 7, 11:50 PM)
Average46 °F81%29.76 "Hg
* Reported Jan 25 11:50 PM — Feb 9 11:50 PM, Swindon, Weather by CustomWeather, © 2016

Note: Actual official high and low records may vary slightly from our data, if they occured in-between our weather recording intervals... More about our weather records

Advertising

Swindon Weather History for the Previous 24 Hours

 ConditionsComfort  
Time TempWeatherWind HumidityBarometerVisibility
11:50 PM
Tue, Feb 9
41 °FPassing clouds.7 mph81%29.21 "HgN/A
10:50 PM39 °FPassing clouds.10 mph87%29.21 "HgN/A
9:50 PM39 °FPassing clouds.12 mph81%29.18 "HgN/A
8:50 PM39 °FPartly cloudy.13 mph81%29.15 "HgN/A
7:50 PM39 °FPassing clouds.10 mph81%29.15 "HgN/A
6:50 PM39 °FClear.9 mph75%29.15 "Hg10 mi
5:50 PM39 °FPartly cloudy.12 mph81%29.12 "HgN/A
4:50 PM39 °FScattered clouds.15 mph70%29.12 "HgN/A
3:50 PM41 °FScattered showers. Broken clouds.15 mph66%29.09 "HgN/A
2:50 PM45 °FPassing clouds.10 mph49%29.06 "HgN/A
1:50 PM43 °FScattered clouds.9 mph57%29.09 "HgN/A
12:50 PM43 °FPassing clouds.13 mph57%29.09 "HgN/A
11:50 AM43 °FScattered clouds.8 mph66%29.09 "HgN/A
10:50 AM39 °FPartly sunny.7 mph93%29.09 "HgN/A
9:50 AM37 °FPartly sunny.5 mph93%29.09 "HgN/A
8:50 AM37 °FPartly sunny.2 mph93%29.12 "HgN/A
7:50 AM36 °FPartly sunny.1 mph93%29.12 "HgN/A
6:50 AM36 °FPassing clouds.3 mph93%29.15 "HgN/A
5:50 AM36 °FPartly cloudy.5 mph93%29.18 "HgN/A
4:50 AM37 °FSprinkles. Partly cloudy.10 mph93%29.21 "HgN/A
3:50 AM37 °FPassing clouds.8 mph87%29.24 "HgN/A
2:50 AM37 °FPassing clouds.3 mph87%29.27 "HgN/A
1:50 AM37 °FPassing clouds.10 mph87%29.30 "HgN/A
Weather by CustomWeather, © 2016

See weather overviewHow to use our weather pages